User: anonymous   Login
Location: Clyde
(45.1830°S, 169.3170°E)
Time: 09:20:42
(UTC+13:00)
Language:

Cosmos 2333 Rocket - Orbit

View from above orbital plane
View from above orbital plane
View from above satellite
View from above satellite

Ground track
Ground track

The orbit data is extracted from the following two-line orbital elements,

1 24298U 96051B   19081.76381878 +.00000006 +00000-0 +29838-4 0  9993
2 24298 070.8249 145.1647 0017967 296.5661 063.3617 14.12391980162430
Epoch (UTC): 22 March 2019 18:19:53
Eccentricity: 0.0017967
inclination: 70.8249°
perigee height: 838 km
apogee height: 864 km
right ascension of ascending node: 145.1647°
argument of perigee: 296.5661°
revolutions per day: 14.12391980
mean anomaly at epoch: 63.3617°
orbit number at epoch: 16243

The dashed part of the orbit path shows where the satellite is in the earth's shadow,  

DLR